Hourly Data Report for October 23, 2014

All times are specified in Local Standard Time (LST). Add 1 hour to adjust for Daylight Saving Time where and when it is observed.

BAKER LAKE A
NUNAVUT

64°17'56.000" N
96°04'40.000" W
18.60 m
2300503
71926
YBK

Download Data

Hourly Data (October 2014)
Hourly Data Report for October 23, 2014
Temp Definition
°C
Dew Point Temp Definition
°C
Rel Hum Definition
%
Wind Dir Definition
10's deg

Wind Spd Definition
km/h
Visibility Definition
km
Stn Press Definition
kPa
Hmdx Definition


Wind Chill Definition


Weather Definition


TIME
00:00 Legend Double Dagger -7.9 -11.1 78 5 23 24.1 101.87   -16 Cloudy
01:00 Legend Double Dagger -8.3 -11.3 79 6 23 24.1 101.92   -16 LegendNANA
02:00 Legend Double Dagger -8.4 -12.1 75 5 26 24.1 102.01   -17 LegendNANA
03:00 Legend Double Dagger -9.3 -12.8 76 6 25 24.1 102.05   -18 Cloudy
04:00 Legend Double Dagger -10.7 -14.0 77 5 26 24.1 102.10   -20 LegendNANA
05:00 Legend Double Dagger -10.8 -13.6 80 6 22 24.1 102.14   -19 LegendNANA
06:00 Legend Double Dagger -11.3 -14.1 80 6 23 24.1 102.18   -20 Cloudy
07:00 Legend Double Dagger -11.5 -14.5 79 6 26 24.1 102.15   -21 LegendNANA
08:00 Legend Double Dagger -11.3 -14.1 80 6 24 32.2 102.23   -20 LegendNANA
09:00 Legend Double Dagger -10.8 -13.3 82 7 26 32.2 102.23   -20 Cloudy
10:00 Legend Double Dagger -10.1 -12.5 83 6 21 32.2 102.25   -18 LegendNANA
11:00 Legend Double Dagger -9.5 -11.3 87 7 23 3.2 102.25   -18 Snow,Blowing Snow
12:00 Legend Double Dagger -9.1 -10.9 87 7 30 6.4 102.26   -18 Snow,Blowing Snow
13:00 Legend Double Dagger -9.1 -10.9 87 7 29 24.1 102.23   -18 Blowing Snow
14:00 Legend Double Dagger -8.9 -10.8 86 7 29 16.1 102.21   -18 Snow,Blowing Snow
15:00 Legend Double Dagger -7.9 -9.4 89 8 30 4.8 102.17   -17 Snow,Blowing Snow
16:00 Legend Double Dagger -7.1 -8.3 91 8 31 4.8 102.11   -16 Snow,Blowing Snow
17:00 Legend Double Dagger -6.1 -7.2 92 9 37 6.4 102.06   -15 Snow,Blowing Snow
18:00 Legend Double Dagger -6.1 -7.2 92 8 37 16.1 102.05   -15 Snow,Blowing Snow
19:00 Legend Double Dagger -6.0 -7.0 93 9 36 16.1 101.99   -15 Snow,Blowing Snow
20:00 Legend Double Dagger -4.6 -6.3 88 11 43 16.1 101.97   -14 Snow,Blowing Snow
21:00 Legend Double Dagger -4.2 -6.2 86 12 43 24.1 101.92   -13 Blowing Snow
22:00 Legend Double Dagger -4.5 -6.5 86 12 40 24.1 101.92   -13 Blowing Snow
23:00 Legend Double Dagger -4.5 -6.5 86 11 43 24.1 101.89   -14 Blowing Snow

Notes on Data Quality.

Legend

  • E = Estimated
  • M = Missing
  • NA = Not Available
  • ‡ = Partner data that is not subject to review by the National Climate Archives
Date modified: